GW4244 Weather Reports


time (UTC)temp
C
wind
direction
speed
KPH
gust
KPH
rain 1hr
cm
rain 24hr
cm
rain mn
cm
humidity
%
barometer
mb
20260906190634 41 109 1.6 1.6 0.00 0.00 0.00 36 1011.5
20260906190130 40 165 0.0 1.6 0.00 0.00 0.00 36 1011.3
20260906185628 39 139 0.0 0.0 0.00 0.00 0.00 37 1011.6
20260906185128 38 209 3.2 4.8 0.00 0.00 0.00 38 1011.6
20260906184622 39 221 11.3 14.5 0.00 0.00 0.00 37 1011.4
20260906184118 40 227 3.2 3.2 0.00 0.00 0.00 37 1011.5
20260906183614 41 201 8.0 11.3 0.00 0.00 0.00 35 1011.7
20260906183109 40 140 1.6 3.2 0.00 0.00 0.00 37 1011.8
20260906182604 40 164 0.0 0.0 0.00 0.00 0.00 37 1011.9
20260906182101 39 149 0.0 0.0 0.00 0.00 0.00 39 1011.8
20260906181555 39 139 0.0 0.0 0.00 0.00 0.00 40 1012.0
20260906181046 39 136 0.0 0.0 0.00 0.00 0.00 38 1012.0
20260906180545 39 147 0.0 1.6 0.00 0.00 0.00 39 1012.3
20260906180044 39 67 1.6 1.6 0.00 0.00 0.00 39 1012.3
20260906175543 38 265 3.2 3.2 0.00 0.00 0.00 39 1012.5
20260906175038 38 35 4.8 4.8 0.00 0.00 0.00 39 1012.4
20260906174537 38 138 1.6 3.2 0.00 0.00 0.00 41 1012.7
20260906174032 38 213 3.2 4.8 0.00 0.00 0.00 40 1012.7
20260906173526 38 219 1.6 1.6 0.00 0.00 0.00 42 1012.9
20260906173023 38 219 3.2 3.2 0.00 0.00 0.00 41 1013.0
20260906172517 38 128 1.6 1.6 0.00 0.00 0.00 41 1013.2
20260906172012 38 162 0.0 0.0 0.00 0.00 0.00 43 1013.2
20260906171508 38 141 1.6 3.2 0.00 0.00 0.00 41 1013.2
20260906171003 38 49 0.0 0.0 0.00 0.00 0.00 40 1013.5
20260906170459 37 197 1.6 3.2 0.00 0.00 0.00 40 1013.3
20260906165956 37 148 0.0 1.6 0.00 0.00 0.00 41 1013.5
20260906165454 37 86 1.6 3.2 0.00 0.00 0.00 42 1013.7
20260906164949 37 214 3.2 3.2 0.00 0.00 0.00 43 1013.5
20260906164448 37 169 3.2 3.2 0.00 0.00 0.00 46 1013.5
20260906163945 37 212 1.6 3.2 0.00 0.00 0.00 44 1013.6
20260906163440 37 81 1.6 1.6 0.00 0.00 0.00 45 1013.5
20260906162938 37 140 1.6 1.6 0.00 0.00 0.00 46 1013.7
20260906162437 37 196 1.6 1.6 0.00 0.00 0.00 46 1013.8
20260906161932 36 192 3.2 3.2 0.00 0.00 0.00 47 1013.8
20260906161431 37 181 1.6 3.2 0.00 0.00 0.00 45 1013.6
20260906160925 37 147 0.0 0.0 0.00 0.00 0.00 48 1013.9
20260906160424 37 50 3.2 3.2 0.00 0.00 0.00 46 1013.8
20260906155922 36 148 0.0 0.0 0.00 0.00 0.00 48 1013.9
20260906155416 35 133 0.0 0.0 0.00 0.00 0.00 49 1013.8
20260906154913 36 191 1.6 3.2 0.00 0.00 0.00 52 1014.0
20260906154407 35 168 0.0 1.6 0.00 0.00 0.00 54 1014.0
20260906153906 35 332 3.2 4.8 0.00 0.00 0.00 54 1013.8
20260906153359 35 158 0.0 0.0 0.00 0.00 0.00 56 1013.9
20260906152855 35 108 3.2 3.2 0.00 0.00 0.00 56 1013.7
20260906152354 34 200 1.6 1.6 0.00 0.00 0.00 56 1014.0
20260906151854 33 138 0.0 0.0 0.00 0.00 0.00 58 1013.6
20260906151349 34 147 1.6 1.6 0.00 0.00 0.00 57 1013.9
20260906150846 34 212 3.2 3.2 0.00 0.00 0.00 57 1013.7
20260906150341 34 159 0.0 0.0 0.00 0.00 0.00 57 1013.8
20260906145840 33 149 0.0 0.0 0.00 0.00 0.00 59 1013.8
20260906145339 33 134 0.0 0.0 0.00 0.00 0.00 61 1013.7
20260906144834 32 147 0.0 0.0 0.00 0.00 0.00 61 1013.6
20260906144328 32 170 0.0 1.6 0.00 0.00 0.00 63 1013.7
20260906143823 31 153 0.0 0.0 0.00 0.00 0.00 63 1013.8
20260906143319 31 213 3.2 3.2 0.00 0.00 0.00 65 1013.6
20260906142815 32 141 0.0 0.0 0.00 0.00 0.00 62 1013.8
20260906142310 31 120 0.0 0.0 0.00 0.00 0.00 66 1013.9
20260906141809 31 130 0.0 0.0 0.00 0.00 0.00 67 1013.9
20260906141303 31 141 0.0 0.0 0.00 0.00 0.00 67 1013.7
20260906140802 30 132 0.0 0.0 0.00 0.00 0.00 69 1013.8
20260906140257 30 118 0.0 1.6 0.00 0.00 0.00 69 1013.9
20260906135755 29 202 4.8 4.8 0.00 0.00 0.00 71 1013.9
20260906135250 28 206 4.8 6.4 0.00 0.00 0.00 71 1013.8
20260906134746 28 163 1.6 1.6 0.00 0.00 0.00 72 1013.5
20260906134241 29 173 1.6 1.6 0.00 0.00 0.00 72 1013.5
20260906133736 28 168 1.6 1.6 0.00 0.00 0.00 72 1013.5
20260906133232 28 202 1.6 3.2 0.00 0.00 0.00 73 1013.7
20260906132727 28 133 0.0 0.0 0.00 0.00 0.00 76 1013.6
20260906132222 27 172 1.6 3.2 0.00 0.00 0.00 78 1013.5
20260906131718 26 186 1.6 3.2 0.00 0.00 0.00 79 1013.7
20260906131212 26 185 1.6 1.6 0.00 0.00 0.00 81 1013.6
20260906130708 26 163 1.6 1.6 0.00 0.00 0.00 81 1013.4
20260906130203 25 177 1.6 1.6 0.00 0.00 0.00 83 1013.4
20260906125702 25 175 0.0 0.0 0.00 0.00 0.00 86 1013.3
20260906125200 23 171 0.0 0.0 0.00 0.00 0.00 89 1013.3
20260906124655 23 159 0.0 0.0 0.00 0.00 0.00 92 1013.2
20260906124151 23 137 0.0 0.0 0.00 0.00 0.00 94 1013.2
20260906123649 23 139 0.0 0.0 0.00 0.00 0.00 94 1013.2
20260906123145 22 143 0.0 0.0 0.00 0.00 0.00 94 1013.2
20260906122644 22 143 0.0 0.0 0.00 0.00 0.00 94 1013.2
20260906122140 22 143 0.0 0.0 0.00 0.00 0.00 94 1013.2
20260906121636 22 151 0.0 0.0 0.00 0.00 0.00 94 1012.7
20260906121132 22 145 0.0 0.0 0.00 0.00 0.00 94 1013.1
20260906120627 22 158 0.0 0.0 0.00 0.00 0.00 94 1013.0
20260906120125 22 157 0.0 0.0 0.00 0.00 0.00 94 1013.0
20260906115624 22 135 0.0 0.0 0.00 0.00 0.00 93 1012.6
20260906115120 22 135 0.0 0.0 0.00 0.00 0.00 93 1012.6
20260906114613 23 135 0.0 0.0 0.00 0.00 0.00 93 1012.9
20260906114108 22 135 0.0 0.0 0.00 0.00 0.00 93 1012.5
20260906113608 23 135 0.0 0.0 0.00 0.00 0.00 93 1012.6
20260906113103 23 141 0.0 0.0 0.00 0.00 0.00 93 1012.4
20260906112603 23 140 0.0 0.0 0.00 0.00 0.00 93 1012.6
20260906112100 23 140 0.0 0.0 0.00 0.00 0.00 93 1012.7
20260906111559 23 140 0.0 0.0 0.00 0.00 0.00 92 1012.6
20260906111055 23 140 0.0 0.0 0.00 0.00 0.00 92 1012.7
20260906110554 23 140 0.0 0.0 0.00 0.00 0.00 92 1012.5
20260906110053 23 140 0.0 0.0 0.00 0.00 0.00 92 1012.4
20260906105548 23 146 0.0 0.0 0.00 0.00 0.00 92 1012.5
20260906105044 23 152 0.0 0.0 0.00 0.00 0.00 91 1012.6
20260906104543 23 123 0.0 0.0 0.00 0.00 0.00 92 1012.5
20260906104037 23 123 0.0 0.0 0.00 0.00 0.00 92 1012.6
20260906103536 23 117 0.0 0.0 0.00 0.00 0.00 93 1012.4
20260906103031 23 141 0.0 0.0 0.00 0.00 0.00 93 1012.5
20260906102526 23 148 0.0 0.0 0.00 0.00 0.00 92 1012.5
20260906102021 23 159 0.0 0.0 0.00 0.00 0.00 92 1012.4
20260906101515 23 159 0.0 0.0 0.00 0.00 0.00 92 1012.3
20260906101010 23 159 0.0 0.0 0.00 0.00 0.00 91 1012.4
20260906100506 23 159 0.0 0.0 0.00 0.00 0.00 91 1012.4
20260906100006 23 183 0.0 0.0 0.00 0.00 0.00 91 1012.5
20260906095500 23 159 0.0 0.0 0.00 0.00 0.00 90 1012.4
20260906094956 23 171 0.0 0.0 0.00 0.00 0.00 90 1012.3
20260906094454 23 152 0.0 0.0 0.00 0.00 0.00 89 1012.3
20260906093951 24 141 0.0 0.0 0.00 0.00 0.00 89 1012.3
20260906093447 23 125 0.0 0.0 0.00 0.00 0.00 89 1012.0
20260906092942 23 106 0.0 0.0 0.00 0.00 0.00 90 1012.1
20260906092441 23 110 0.0 0.0 0.00 0.00 0.00 90 1011.9
20260906091936 23 146 0.0 0.0 0.00 0.00 0.00 90 1012.0
20260906091432 23 146 0.0 0.0 0.00 0.00 0.00 90 1012.2
20260906090929 23 160 0.0 0.0 0.00 0.00 0.00 90 1012.3
20260906090424 23 195 1.6 3.2 0.00 0.00 0.00 89 1012.1
20260906085918 23 141 0.0 0.0 0.00 0.00 0.00 89 1011.9
20260906085417 23 141 0.0 0.0 0.00 0.00 0.00 89 1011.9
20260906084917 24 140 0.0 0.0 0.00 0.00 0.00 88 1011.9
20260906084412 24 153 0.0 0.0 0.00 0.00 0.00 87 1011.9
20260906083911 25 146 0.0 0.0 0.00 0.00 0.00 86 1011.8
20260906083407 25 160 0.0 1.6 0.00 0.00 0.00 85 1011.6
20260906082906 24 160 0.0 1.6 0.00 0.00 0.00 86 1011.8
20260906082401 24 121 0.0 0.0 0.00 0.00 0.00 85 1011.7
20260906081857 24 114 0.0 0.0 0.00 0.00 0.00 86 1011.7
20260906081353 24 114 0.0 0.0 0.00 0.00 0.00 87 1011.5
20260906080849 24 101 0.0 0.0 0.00 0.00 0.00 88 1011.5
20260906080345 24 136 0.0 0.0 0.00 0.00 0.00 88 1011.5
20260906075844 24 136 0.0 0.0 0.00 0.00 0.00 88 1011.4
20260906075339 24 136 0.0 0.0 0.00 0.00 0.00 88 1011.6
20260906074835 24 136 0.0 0.0 0.00 0.00 0.00 87 1011.4
20260906074334 25 134 0.0 0.0 0.00 0.00 0.00 87 1011.5
20260906073833 25 139 0.0 0.0 0.00 0.00 0.00 86 1011.5
20260906073328 25 146 0.0 0.0 0.00 0.00 0.00 85 1011.7
20260906072825 25 146 0.0 0.0 0.00 0.00 0.00 85 1011.7
20260906072320 25 146 0.0 0.0 0.00 0.00 0.00 84 1011.6
20260906071816 25 146 0.0 0.0 0.00 0.00 0.00 84 1011.6
20260906071315 25 130 0.0 0.0 0.00 0.00 0.00 84 1011.6
20260906070812 25 129 0.0 0.0 0.00 0.00 0.00 84 1011.7
20260906070308 25 122 0.0 0.0 0.00 0.00 0.00 83 1011.8
20260906065808 25 125 0.0 0.0 0.00 0.00 0.00 84 1011.6
20260906065305 25 128 0.0 0.0 0.00 0.00 0.00 85 1011.5
20260906064758 25 145 0.0 0.0 0.00 0.00 0.00 85 1011.7
20260906064254 25 145 0.0 0.0 0.00 0.00 0.00 84 1011.8
20260906063749 25 145 0.0 0.0 0.00 0.00 0.00 84 1011.5
20260906063244 25 145 0.0 0.0 0.00 0.00 0.00 83 1011.6
20260906062739 26 159 1.6 1.6 0.00 0.00 0.00 82 1011.7
20260906062238 26 146 0.0 0.0 0.00 0.00 0.00 82 1011.6
20260906061734 26 209 3.2 3.2 0.00 0.00 0.00 80 1011.5
20260906061231 26 140 0.0 0.0 0.00 0.00 0.00 78 1011.7
20260906060726 27 143 0.0 0.0 0.00 0.00 0.00 77 1011.8
20260906060224 27 134 0.0 0.0 0.00 0.00 0.00 76 1011.7
20260906055719 26 98 0.0 0.0 0.00 0.00 0.00 77 1011.7
20260906055214 27 141 0.0 0.0 0.00 0.00 0.00 77 1011.7
20260906054710 27 125 0.0 0.0 0.00 0.00 0.00 76 1011.7
20260906054210 27 125 0.0 0.0 0.00 0.00 0.00 76 1011.9
20260906053707 27 109 0.0 0.0 0.00 0.00 0.00 77 1011.7
20260906053201 27 163 0.0 0.0 0.00 0.00 0.00 77 1011.8
20260906052656 26 130 0.0 0.0 0.00 0.00 0.00 78 1011.7
20260906052153 27 123 0.0 0.0 0.00 0.00 0.00 78 1011.9
20260906051650 27 232 4.8 6.4 0.00 0.00 0.00 81 1011.7
20260906051149 27 115 0.0 0.0 0.00 0.00 0.00 75 1011.6
20260906050644 27 104 0.0 0.0 0.00 0.00 0.00 76 1011.5
20260906050139 27 99 0.0 0.0 0.00 0.00 0.00 78 1011.4
20260906045638 26 132 0.0 0.0 0.00 0.00 0.00 81 1011.4
20260906045133 26 157 0.0 0.0 0.00 0.00 0.00 80 1011.5
20260906044629 27 131 0.0 0.0 0.00 0.00 0.00 78 1011.5
20260906044124 27 152 0.0 0.0 0.00 0.00 0.00 76 1011.5
20260906043621 27 130 0.0 0.0 0.00 0.00 0.00 76 1011.4
20260906043116 27 118 0.0 0.0 0.00 0.00 0.00 76 1011.7
20260906042615 27 125 0.0 0.0 0.00 0.00 0.00 76 1011.4
20260906042109 27 125 0.0 0.0 0.00 0.00 0.00 76 1011.5
20260906041606 27 127 0.0 0.0 0.00 0.00 0.00 77 1011.4
20260906041100 27 204 3.2 3.2 0.00 0.00 0.00 76 1011.5
20260906040555 27 126 0.0 0.0 0.00 0.00 0.00 76 1011.2
20260906040046 27 142 0.0 0.0 0.00 0.00 0.00 78 1011.4
20260906035541 27 130 0.0 0.0 0.00 0.00 0.00 78 1011.5
20260906035036 27 187 3.2 4.8 0.00 0.00 0.00 79 1011.4
20260906034536 27 141 0.0 0.0 0.00 0.00 0.00 78 1011.3
20260906034031 27 177 1.6 1.6 0.00 0.00 0.00 77 1011.3
20260906033526 27 165 0.0 0.0 0.00 0.00 0.00 74 1011.1
20260906033021 27 128 0.0 0.0 0.00 0.00 0.00 75 1011.1
20260906032518 27 128 0.0 0.0 0.00 0.00 0.00 76 1011.1
20260906032018 27 128 0.0 0.0 0.00 0.00 0.00 75 1011.2
20260906031514 27 128 0.0 0.0 0.00 0.00 0.00 76 1011.3
20260906031009 27 128 0.0 0.0 0.00 0.00 0.00 76 1011.1
20260906030503 28 133 0.0 0.0 0.00 0.00 0.00 76 1011.4
20260906025958 28 145 0.0 0.0 0.00 0.00 0.00 76 1011.2
20260906025457 28 143 0.0 0.0 0.00 0.00 0.00 74 1011.1
20260906024955 28 143 0.0 0.0 0.00 0.00 0.00 74 1011.2
20260906024450 28 144 0.0 0.0 0.00 0.00 0.00 74 1011.0
20260906023944 28 130 0.0 0.0 0.00 0.00 0.00 72 1010.9
20260906023441 28 130 0.0 0.0 0.00 0.00 0.00 70 1011.1
20260906022936 29 130 0.0 0.0 0.00 0.00 0.00 70 1011.0
20260906022432 29 122 0.0 0.0 0.00 0.00 0.00 70 1010.8
20260906021927 29 119 0.0 0.0 0.00 0.00 0.00 70 1010.8
20260906021426 30 119 0.0 0.0 0.00 0.00 0.00 70 1010.8
20260906020920 30 119 0.0 0.0 0.00 0.00 0.00 70 1010.7
20260906020415 29 119 0.0 0.0 0.00 0.00 0.00 70 1010.7
20260906015909 28 119 0.0 0.0 0.00 0.00 0.00 71 1010.4
20260906015409 29 119 0.0 0.0 0.00 0.00 0.00 72 1010.6
20260906014909 29 119 0.0 0.0 0.00 0.00 0.00 72 1010.4
20260906014408 29 119 0.0 0.0 0.00 0.00 0.00 72 1010.5
20260906013905 30 125 0.0 0.0 0.00 0.00 0.00 70 1010.3
20260906013400 30 159 0.0 1.6 0.00 0.00 0.00 66 1010.3
20260906012856 30 137 0.0 0.0 0.00 0.00 0.00 66 1010.3
20260906012350 30 137 0.0 0.0 0.00 0.00 0.00 66 1010.1
20260906011850 30 138 0.0 0.0 0.00 0.00 0.00 65 1010.0
20260906011345 30 138 0.0 0.0 0.00 0.00 0.00 65 1010.0
20260906010841 31 138 0.0 0.0 0.00 0.00 0.00 63 1009.9
20260906010337 31 141 0.0 0.0 0.00 0.00 0.00 63 1010.0
20260906005832 31 137 0.0 0.0 0.00 0.00 0.00 62 1009.9
20260906005331 32 138 0.0 0.0 0.00 0.00 0.00 60 1009.8
20260906004830 32 138 0.0 0.0 0.00 0.00 0.00 59 1009.9
20260906004330 32 138 0.0 0.0 0.00 0.00 0.00 57 1009.8
20260906003825 33 138 0.0 0.0 0.00 0.00 0.00 56 1009.8
20260906003321 33 137 0.0 0.0 0.00 0.00 0.00 55 1009.8
20260906002816 34 137 0.0 0.0 0.00 0.00 0.00 53 1009.9
20260906002315 35 133 0.0 0.0 0.00 0.00 0.00 51 1009.8
20260906001811 35 134 0.0 0.0 0.00 0.00 0.00 49 1009.8
20260906001306 35 136 0.0 0.0 0.00 0.00 0.00 50 1009.7
20260906000801 35 142 0.0 0.0 0.00 0.00 0.00 47 1009.8
20260906000256 35 138 0.0 0.0 0.00 0.00 0.00 46 1009.7
20260905235751 36 144 0.0 0.0 0.00 0.00 0.00 45 1009.7
20260905235250 36 165 0.0 1.6 0.00 0.00 0.00 44 1009.7
20260905234746 36 143 0.0 0.0 0.00 0.00 0.00 42 1009.7
20260905234241 36 120 0.0 0.0 0.00 0.00 0.00 44 1009.7
20260905233737 36 131 0.0 0.0 0.00 0.00 0.00 42 1009.9
20260905233236 37 160 1.6 1.6 0.00 0.00 0.00 42 1009.9
20260905232736 36 119 0.0 0.0 0.00 0.00 0.00 43 1009.8
20260905232232 37 137 0.0 0.0 0.00 0.00 0.00 42 1009.7
20260905231727 37 137 0.0 1.6 0.00 0.00 0.00 44 1009.7
20260905231223 37 150 0.0 0.0 0.00 0.00 0.00 41 1009.6
20260905230719 37 192 3.2 3.2 0.00 0.00 0.00 40 1009.6
20260905230216 37 138 0.0 0.0 0.00 0.00 0.00 40 1009.6
20260905225716 37 193 1.6 3.2 0.00 0.00 0.00 40 1009.7
20260905225212 37 128 0.0 0.0 0.00 0.00 0.00 40 1009.7
20260905224710 37 126 0.0 1.6 0.00 0.00 0.00 40 1009.8
20260905224206 37 155 0.0 0.0 0.00 0.00 0.00 40 1009.6
20260905223702 37 131 0.0 1.6 0.00 0.00 0.00 39 1009.8
20260905223159 37 163 1.6 1.6 0.00 0.00 0.00 41 1009.8
20260905222654 38 148 3.2 3.2 0.00 0.00 0.00 40 1009.8
20260905222154 38 203 3.2 3.2 0.00 0.00 0.00 39 1009.8
20260905221649 38 109 0.0 1.6 0.00 0.00 0.00 40 1009.7
20260905221146 38 189 1.6 3.2 0.00 0.00 0.00 40 1009.8
20260905220641 38 209 3.2 3.2 0.00 0.00 0.00 39 1009.8
20260905220137 38 204 1.6 3.2 0.00 0.00 0.00 39 1009.8
20260905215637 39 155 0.0 1.6 0.00 0.00 0.00 39 1010.0
20260905215132 39 177 3.2 3.2 0.00 0.00 0.00 38 1010.0
20260905214628 39 172 0.0 1.6 0.00 0.00 0.00 37 1010.0
20260905214128 40 183 3.2 3.2 0.00 0.00 0.00 37 1010.2
20260905213624 40 126 0.0 0.0 0.00 0.00 0.00 38 1010.2
20260905213119 40 134 0.0 0.0 0.00 0.00 0.00 38 1010.2
20260905212614 39 134 0.0 0.0 0.00 0.00 0.00 38 1010.3
20260905212108 39 137 0.0 0.0 0.00 0.00 0.00 40 1010.3
20260905211604 39 154 0.0 0.0 0.00 0.00 0.00 39 1010.3
20260905211059 39 334 3.2 4.8 0.00 0.00 0.00 38 1010.4
20260905210555 40 171 3.2 3.2 0.00 0.00 0.00 38 1010.6
20260905210050 39 163 0.0 0.0 0.00 0.00 0.00 39 1010.7
20260905205549 39 105 0.0 0.0 0.00 0.00 0.00 39 1010.8
20260905205048 38 295 6.4 6.4 0.00 0.00 0.00 38 1010.7
20260905204543 39 313 6.4 6.4 0.00 0.00 0.00 38 1010.8
20260905204038 38 221 4.8 9.7 0.00 0.00 0.00 40 1010.9
20260905203538 38 223 4.8 6.4 0.00 0.00 0.00 40 1011.1
20260905203033 38 215 6.4 6.4 0.00 0.00 0.00 40 1011.0
20260905202528 39 219 6.4 6.4 0.00 0.00 0.00 38 1011.2
20260905202024 38 107 0.0 0.0 0.00 0.00 0.00 41 1011.2
20260905201520 37 206 4.8 4.8 0.00 0.00 0.00 43 1011.4
20260905201019 36 229 6.4 6.4 0.00 0.00 0.00 43 1011.5
20260905200515 37 134 0.0 0.0 0.00 0.00 0.00 42 1011.6
20260905200014 38 216 6.4 9.7 0.00 0.00 0.00 41 1011.4
20260905195508 38 96 1.6 1.6 0.00 0.00 0.00 40 1011.8
20260905195004 38 229 4.8 4.8 0.00 0.00 0.00 41 1011.8
20260905194503 38 220 6.4 9.7 0.00 0.00 0.00 40 1011.8
20260905193957 38 194 1.6 3.2 0.00 0.00 0.00 42 1011.9
20260905193452 38 191 3.2 3.2 0.00 0.00 0.00 41 1011.9
20260905192947 38 217 6.4 6.4 0.00 0.00 0.00 39 1012.0
20260905192442 38 88 3.2 4.8 0.00 0.00 0.00 43 1012.2
20260905191938 38 165 4.8 4.8 0.00 0.00 0.00 40 1012.2
20260905191437 37 243 3.2 3.2 0.00 0.00 0.00 42 1012.2